Flag for Germany Weather past 2 weeks in Eckernförde, Schleswig-Holstein, Germany

Now
49 °F

Sprinkles. Overcast.


Feels Like: 45 °F
Forecast: 38 / 55 °F
Wind: 9 mph from Southwest

Location: Schleswig

Current Time: May 7, 2015 at 5:42:48 AM

Latest Report: May 7, 2015 at 5:00 AM


Visibility: 6 mi

Pressure: 29.74 "Hg

Humidity: 92%

Dew point: 47 °F

Location of EckernfördeLocation

Historic Weather in Eckernförde — Graph

°F

Eckernförde temperature yesterday

Maximum temperature yesterday: 62 °F (at 4:00 PM)
Minimum temperature yesterday: 46 °F (at 6:00 AM)
Average temperature yesterday: 53 °F

Past Weeks' High & Low Weather Summary

 TemperatureHumidityPressure
High74 °F (May 5, 3:00 PM)100% (Apr 24, 4:00 AM)30.30 "Hg (Apr 24, 4:00 AM)
Low32 °F (Apr 28, 6:00 AM)37% (Apr 30, 3:00 PM)29.38 "Hg (May 5, 2:00 PM)
Average49 °F78%29.83 "Hg
* Reported Apr 22 4:00 AM — May 7 4:00 AM, Eckernförde, Weather by CustomWeather, © 2015

Note: Actual official high and low records may vary slightly from our data, if they occured in-between our weather recording intervals... More about our weather records

Advertising

Eckernförde weather history for previous 24 hours

 ConditionsComfort  
Time TempWeatherWind HumidityBarometerVisibility
4:00 AM
Thu, May 7
49 °FOvercast.8 mph89%29.72 "Hg12 mi
3:00 AM50 °FOvercast.7 mph82%29.72 "Hg16 mi
2:00 AM49 °FPassing clouds.8 mph83%29.73 "Hg16 mi
1:00 AM49 °FOvercast.7 mph83%29.75 "Hg19 mi
12:00 AM49 °FOvercast.6 mph85%29.76 "Hg19 mi
11:00 PM
Wed, May 6
48 °FPassing clouds.5 mph88%29.77 "Hg16 mi
10:00 PM49 °FPassing clouds.5 mph89%29.77 "Hg16 mi
9:00 PM49 °FPartly sunny.3 mph93%29.78 "Hg19 mi
8:00 PM50 °FPartly sunny.5 mph91%29.79 "Hg19 mi
7:00 PM49 °FSprinkles. Overcast.5 mph91%29.81 "Hg6 mi
6:00 PM49 °FLight rain. Overcast.7 mph88%29.81 "Hg5 mi
5:00 PM60 °FThunderstorms. Overcast.6 mph53%29.75 "Hg22 mi
4:00 PM62 °FScattered clouds.8 mph49%29.75 "Hg22 mi
3:00 PM60 °FPartly sunny.7 mph58%29.76 "Hg22 mi
2:00 PM59 °FScattered clouds.8 mph56%29.77 "Hg22 mi
1:00 PM61 °FScattered clouds.7 mph53%29.77 "Hg22 mi
12:00 PM59 °FPassing clouds.6 mph64%29.78 "Hg22 mi
11:00 AM60 °FPassing clouds.6 mph64%29.78 "Hg22 mi
10:00 AM56 °FPassing clouds.6 mph68%29.78 "Hg22 mi
9:00 AM54 °FPassing clouds.5 mph72%29.78 "Hg22 mi
8:00 AM51 °FPassing clouds.5 mph77%29.78 "Hg22 mi
7:00 AM47 °FPassing clouds.3 mph83%29.77 "Hg25 mi
6:00 AM46 °FPassing clouds.3 mph85%29.76 "Hg25 mi
Weather by CustomWeather, © 2015

See weather overviewHow to use our weather pages